Weather History for Palm Springs, CA

Change the Weather History Date:

Sunday, January 6, 2013

  Actual Average Record
Temperature  
Mean Temperature 51 °F 57 °F  
Max Temperature 63 °F 68 °F 82 °F (1948)
Min Temperature 38 °F 45 °F 26 °F (1950)
Degree Days  
Heating Degree Days 14 9  
Month to date heating degree days 77 54  
Since 1 July heating degree days 378 440  
Cooling Degree Days 0 0  
Month to date cooling degree days 0 0  
Year to date cooling degree days 0 0  
Moisture  
Dew Point 25 °F    
Average Humidity 38    
Maximum Humidity 61    
Minimum Humidity 15    
Precipitation  
Precipitation 0.00 in 0.04 in 1.14 in (1993)
Month to date precipitation 0.00 0.31  
Year to date precipitation 0.00 0.31  
Since 1 July precipitation 1.22 3.11  
Snow  
Snow 0.00 in - - ()
Month to date snowfall 0.0  
Year to date snowfall 0.0  
Since 1 July snowfall 0.0  
Snow Depth 0.00 in    
Sea Level Pressure  
Sea Level Pressure 30.05 in    
Wind  
Wind Speed 4 mph (NW)    
Max Wind Speed 22 mph    
Max Gust Speed 28 mph    
Visibility 10 miles    
Events      
T = Trace of Precipitation, MM = Missing Value Source: NWS Daily Summary

Daily Weather History Graph

Daily Weather History Graph

Search for Another Location

Airport:

Trip Planner

Search our weather history database for the weather conditions in past years. The results will help you decide how hot, cold, wet, or windy it might be!

Date:

Astronomy

Jan. 06, 2013 Rise Set
Actual Time 6:51 AM PST 4:52 PM PST
Civil Twilight 6:24 AM PST 5:20 PM PST
Nautical Twilight 5:53 AM PST 5:51 PM PST
Astronomical Twilight 5:23 AM PST 6:21 PM PST
Moon 1:17 AM PST (1/6) 12:18 PM PST (1/6)
Length of Visible Light 10h 55m
Length of Day
10h 00m
Waning Crescent, 32% of the Moon is Illuminated
Jan 6
Waning Crescent
Jan 11
New
Jan 18
First Quarter
Jan 26
Full
Feb 3
Last Quarter

Hourly Weather History & Observations

Time (PST) Temp. Windchill Dew Point Humidity Pressure Visibility Wind Dir Wind Speed Gust Speed Precip Events Conditions
12:53 AM 44.1 °F 42.5 °F 17.1 °F 34% 30.17 in 10.0 mi NW 3.5 mph - N/A   Clear
1:53 AM 46.0 °F 44.8 °F 18.0 °F 33% 30.15 in 10.0 mi NNW 3.5 mph - N/A   Clear
2:53 AM 45.0 °F 40.1 °F 17.1 °F 33% 30.13 in 10.0 mi NW 9.2 mph - N/A   Clear
3:53 AM 43.0 °F 41.3 °F 19.9 °F 40% 30.12 in 10.0 mi WNW 3.5 mph - N/A   Clear
4:53 AM 39.9 °F 37.8 °F 25.0 °F 55% 30.11 in 10.0 mi WSW 3.5 mph - N/A   Clear
5:53 AM 41.0 °F 39.0 °F 17.1 °F 38% 30.11 in 10.0 mi NW 3.5 mph - N/A   Clear
6:53 AM 39.9 °F - 19.9 °F 45% 30.12 in 10.0 mi Calm Calm - N/A   Scattered Clouds
7:53 AM 43.0 °F - 17.1 °F 35% 30.12 in 10.0 mi Calm Calm - N/A   Scattered Clouds
8:53 AM 51.1 °F - 15.1 °F 24% 30.13 in 10.0 mi Calm Calm - N/A   Scattered Clouds
9:53 AM 55.0 °F - 19.0 °F 24% 30.12 in 10.0 mi Calm Calm - N/A   Clear
10:53 AM 59.0 °F - 12.0 °F 16% 30.09 in 10.0 mi SE 3.5 mph - N/A   Clear
11:53 AM 60.1 °F - 16.0 °F 18% 30.06 in 10.0 mi SE 4.6 mph - N/A   Scattered Clouds
12:53 PM 61.0 °F - 19.9 °F 21% 30.02 in 10.0 mi Calm Calm - N/A   Scattered Clouds
1:53 PM 62.1 °F - 21.9 °F 21% 30.00 in 10.0 mi East 4.6 mph - N/A   Scattered Clouds
2:53 PM 62.1 °F - 28.0 °F 28% 29.99 in 10.0 mi NW 10.4 mph - N/A   Scattered Clouds
3:53 PM 60.1 °F - 30.0 °F 32% 29.99 in 10.0 mi NNW 10.4 mph 18.4 mph N/A   Clear
4:53 PM 57.9 °F - 30.0 °F 35% 29.99 in 10.0 mi NW 11.5 mph 21.9 mph N/A   Clear
5:53 PM 57.0 °F - 33.1 °F 40% 29.99 in 10.0 mi NW 9.2 mph 21.9 mph N/A   Clear
6:53 PM 57.0 °F - 32.0 °F 39% 29.98 in 10.0 mi Variable 3.5 mph - N/A   Partly Cloudy
7:53 PM 54.0 °F - 36.0 °F 51% 29.98 in 10.0 mi WNW 5.8 mph - N/A   Scattered Clouds
8:53 PM 51.1 °F - 36.0 °F 56% 29.98 in 10.0 mi WSW 3.5 mph - N/A   Mostly Cloudy
9:53 PM 50.0 °F - 37.0 °F 61% 29.99 in 10.0 mi SE 3.5 mph - N/A   Scattered Clouds
10:53 PM 50.0 °F - 37.0 °F 61% 29.98 in 10.0 mi Calm Calm - N/A   Overcast
11:53 PM 51.1 °F - 37.0 °F 59% 29.98 in 10.0 mi NW 8.1 mph - N/A   Overcast